• MPC Preparation (Info)

  • MPEC 2016-N117: 2008 AQ118

    The following Minor Planet Electronic Circular may be linked-to from your own Web pages, but must not otherwise be redistributed electronically.

    A form allowing access to any MPEC is at the bottom of this page.


    Read MPEC 2016-N116 Read MPEC 2016-N118


    M.P.E.C. 2016-N117                               Issued 2016 July 15, 03:14 UT
    
         The Minor Planet Electronic Circulars contain information on unusual
             minor planets and routine data on comets.  They are published
        on behalf of Division F of the International Astronomical Union by the
              Minor Planet Center, Smithsonian Astrophysical Observatory,
                              Cambridge, MA 02138, U.S.A.
    
                 Prepared using the Tamkin Foundation Computer Network
    
                                  MPC@CFA.HARVARD.EDU
                URL https://www.minorplanetcenter.net/    ISSN 1523-6714
    
                                      2008 AQ118
    
    Additional Observations:
         K08AB8Q  C2011 01 30.34259 09 06 08.461+15 44 30.71         21.7 wLEN117F51
         K08AB8Q  C2011 01 30.35714 09 06 08.385+15 44 30.84         21.7 wLEN117F51
         K08AB8Q  C2011 01 30.37278 09 06 08.306+15 44 31.08         21.7 wLEN117F51
         K08AB8Q  C2011 01 30.38730 09 06 08.220+15 44 31.34         21.6 wLEN117F51
         K08AB8Q  C2013 02 03.34723 09 15 23.177+13 41 18.01         21.7 wLEN117F51
         K08AB8Q  C2013 02 03.36186 09 15 23.089+13 41 18.23         21.6 wLEN117F51
         K08AB8Q  C2013 02 03.37659 09 15 23.014+13 41 18.51         21.7 wLEN117F51
         K08AB8Q  C2013 02 03.39119 09 15 22.928+13 41 18.84         21.8 wLEN117F51
         K08AB8Q  C2013 03 03.25892 09 12 57.958+13 49 32.38         21.8 wLEN117F51
         K08AB8Q  C2013 03 03.27322 09 12 57.888+13 49 32.65         21.8 wLEN117F51
         K08AB8Q  C2013 03 03.28763 09 12 57.836+13 49 32.66         21.8 wLEN117F51
         K08AB8Q  C2013 03 03.30198 09 12 57.760+13 49 33.04         21.8 wLEN117F51
         K08AB8Q  C2014 01 05.43663 09 22 35.438+12 30 58.62         22.0 wLEN117F51
         K08AB8Q  C2014 01 05.45175 09 22 35.367+12 30 58.87         22.2 wLEN117F51
         K08AB8Q  C2014 01 05.46692 09 22 35.290+12 30 58.81         22.1 wLEN117F51
         K08AB8Q  C2014 01 05.48208 09 22 35.223+12 30 59.02         22.0 wLEN117F51
         K08AB8Q  C2014 01 25.39153 09 20 58.718+12 35 43.67         21.8 wLEN117F51
         K08AB8Q  C2014 01 25.40308 09 20 58.641+12 35 43.92         21.8 wLEN117F51
         K08AB8Q  C2014 01 25.42612 09 20 58.525+12 35 44.23         22.1 wLEN117F51
         K08AB8Q  C2014 02 28.30191 09 18 00.269+12 46 01.25         21.6 wLEN117F51
         K08AB8Q  C2014 02 28.31491 09 18 00.192+12 46 01.48         21.8 wLEN117F51
         K08AB8Q  C2014 02 28.32798 09 18 00.147+12 46 01.86         21.9 wLEN117F51
         K08AB8Q  C2014 02 28.34112 09 18 00.081+12 46 01.88         21.7 wLEN117F51
         K08AB8Q  C2014 03 20.25973 09 16 32.684+12 51 23.31         21.8 wLEN117F51
         K08AB8Q  C2014 03 20.27161 09 16 32.635+12 51 23.52         21.7 wLEN117F51
         K08AB8Q  C2014 03 20.29685 09 16 32.535+12 51 23.78         21.5 wLEN117F51
         K08AB8Q  C2014 03 24.24249 09 16 18.305+12 52 15.91         22.0 wLEN117F51
         K08AB8Q  C2014 03 24.25403 09 16 18.274+12 52 16.22         21.9 wLEN117F51
         K08AB8Q  C2014 03 24.26563 09 16 18.246+12 52 16.43         22.0 wLEN117F51
         K08AB8Q  C2014 03 24.27726 09 16 18.214+12 52 16.55         21.8 wLEN117F51
         K08AB8Q  C2014 05 25.26153 09 15 42.410+12 52 46.88         21.9 wLEN117F51
         K08AB8Q  C2014 05 25.26616 09 15 42.407+12 52 47.29         22.1 wLEN117F51
         K08AB8Q  C2014 05 25.27081 09 15 42.419+12 52 46.78         21.9 wLEN117F51
         K08AB8Q  C2014 05 25.27544 09 15 42.426+12 52 47.21         22.0 wLEN117F51
         K08AB8Q  C2014 11 26.54634 09 29 04.037+11 26 46.59         22.1 wLEN117F51
         K08AB8Q  C2014 11 26.55760 09 29 04.048+11 26 46.21         22.0 wLEN117F51
         K08AB8Q  C2014 11 26.56887 09 29 04.049+11 26 46.36         21.7 wLEN117F51
         K08AB8Q  C2014 11 26.58007 09 29 04.028+11 26 46.03         21.9 wLEN117F51
         K08AB8Q  C2014 12 18.51331 09 28 23.513+11 25 47.85         21.8 wLEN117F51
         K08AB8Q  C2014 12 18.52573 09 28 23.479+11 25 48.18         21.8 wLEN117F51
         K08AB8Q  C2014 12 18.53666 09 28 23.457+11 25 48.15         21.7 wLEN117F51
         K08AB8Q  C2014 12 18.54764 09 28 23.417+11 25 48.48         21.9 wLEN117F51
         K08AB8Q  C2015 01 20.54267 09 26 08.847+11 31 06.20         22.0 wLEN117F51
         K08AB8Q  C2015 01 20.55527 09 26 08.780+11 31 06.42         21.8 wLEN117F51
         K08AB8Q  C2015 01 20.56784 09 26 08.711+11 31 06.64         21.8 wLEN117F51
         K08AB8Q  C2015 01 20.58056 09 26 08.646+11 31 06.88         21.9 wLEN117F51
         K08AB8Q  C2015 02 13.34262 09 24 03.747+11 38 08.04         21.8 wLEN117F51
         K08AB8Q  C2015 02 13.35470 09 24 03.686+11 38 08.21         21.8 wLEN117F51
         K08AB8Q  C2015 02 13.36682 09 24 03.599+11 38 08.69         21.9 wLEN117F51
    
    Observer details:
    F51 Pan-STARRS 1, Haleakala.  Observers B. Gibson, T. Goggia, N. Primak,
        A. Schultz, M. Willman.  Measurers K. Chambers, S. Chastel, Y.-T. Chen,
        L. Denneau, H. Flewelling, M. Holman, M. Huber, R. Jedicke, M. Lackner,
        E. Lilly, H.-W. Lin, E. Magnier, M. Micheli, M. Payne, P. Veres,
        R. Wainscoat, C. Waters, R. Weryk.  1.8-m Ritchey-Chretien + CCD.
    
    Orbital elements:
    2008 AQ118 = 2014 CM23
    Epoch 2016 July 31.0 TT = JDT 2457600.5                 MPC
    M 352.56022              (2000.0)            P               Q
    n   0.00365863     Peri.  198.85088     -0.85551574     -0.41723546
    a  41.7115885      Node   312.43993     +0.51220494     -0.59533545
    e   0.0666413      Incl.   24.54854     +0.07575567     -0.68665149
    P 269              H    5.8           G   0.15           U   2
    Residuals in seconds of arc
    080106 568  0.0   0.1-    140125 F51  0.0   0.1-    140525 F51  0.0   0.0
    080106 568  0.0   0.2-    140125 F51  0.2-  0.0     140525 F51  0.0   0.4-
    080106 568  0.1+  0.1-    140125 F51  0.1-  0.1-    140525 F51  0.0   0.1+
    080107 568  0.0   0.3-    140204 809  0.8+  0.7+    141126 F51  0.3-  0.2+
    110130 F51  0.1-  0.2+    140204 809  0.8+  0.9+    141126 F51  0.0   0.1-
    110130 F51  0.0   0.1+    140204 809  0.5+  0.6+    141126 F51  0.2+  0.2+
    110130 F51  0.1+  0.1+    140205 809  1.4+  1.0+    141126 F51  0.0   0.1-
    110130 F51  0.0   0.1+    140205 809  1.3+  0.9+    141218 F51  0.1-  0.1-
    130203 F51  0.1+  0.1+    140228 F51  0.1+  0.1-    141218 F51  0.0   0.2+
    130203 F51  0.0   0.0     140228 F51  0.1-  0.1-    141218 F51  0.1+  0.1+
    130203 F51  0.1+  0.0     140228 F51  0.2+  0.1+    141218 F51  0.0   0.4+
    130203 F51  0.0   0.1+    140228 F51  0.2+  0.1-    150120 F51  0.1+  0.1-
    130303 F51  0.2-  0.0     140320 F51  0.1-  0.0     150120 F51  0.0   0.1-
    130303 F51  0.2-  0.0     140320 F51  0.1-  0.1+    150120 F51  0.0   0.1-
    130303 F51  0.0   0.2-    140320 F51  0.2-  0.0     150120 F51  0.1-  0.0
    130303 F51  0.1-  0.1-    140324 F51  0.4-  0.3-    150213 F51  0.0   0.0
    140105 F51  0.1+  0.0     140324 F51  0.2-  0.1-    150213 F51  0.1+  0.0
    140105 F51  0.1+  0.0     140324 F51  0.0   0.0     150213 F51  0.2-  0.2+
    140105 F51  0.1-  0.2-    140324 F51  0.1+  0.1-
    140105 F51  0.1-  0.2-    140525 F51  0.2+  0.4-
    
    Ephemeris:
    2008 AQ118               a,e,i = 41.71, 0.07, 25                 q = 38.932
    Date    TT    R. A. (2000) Decl.     Delta      r     Elong.  Phase     V
    2016 06 15    09 26 00.2 +10 45 04  39.5125 38.9599    56.4     1.2    21.9
    ...
    2016 06 30    09 27 08.0 +10 39 15  39.7033 38.9595    42.5     1.0    21.9
    ...
    2016 07 08    09 27 49.9 +10 35 33  39.7870 38.9593    35.1     0.9    21.9
    ...
    2016 07 14    09 28 23.4 +10 32 32  39.8402 38.9592    29.6     0.7    21.9
    2016 07 15    09 28 29.2 +10 32 00  39.8482 38.9591    28.6     0.7    21.9
    2016 07 16    09 28 35.0 +10 31 29  39.8560 38.9591    27.7     0.7    21.9
    ...
    2016 07 22    09 29 10.4 +10 28 13  39.8975 38.9590    22.2     0.6    21.9
    ...
    2016 07 30    09 29 59.5 +10 23 38  39.9384 38.9588    15.0     0.4    21.8
    ...
    2016 08 14    09 31 34.3 +10 14 27  39.9685 38.9584     4.2     0.1    21.8
    
    A. U. Tomatic                (C) Copyright 2016 MPC           M.P.E.C. 2016-N117
    

    Read MPEC 2016-N116 Read MPEC 2016-N118


    MPEC number:

    Enter an MPEC number in one of the following forms:

    • 1997-B01 (the full form)
    • J97B01 (the packed version of the full form)
    • B01 (the abbreviated form)